Simultaneous Nadir Overpasses (SNOs) Predictions

Prediction of SNOs between GOES-16 and AQUA Satellite Orbit:

Table of predicted SNOs for the next 14.0 days since TLE Epoch: 3/9/2024
Index Date Time (GOES-16) GOES-16 Lat,Lon AQUA Lat,Lon Distance(km) Time Diff (sec)
1 03/09/2024 19:02:28 0.04, -75.20 0.10, -75.05 18.93 80
2 03/11/2024 18:49:22 0.04, -75.22 0.90, -71.19 458.19 80
3 03/12/2024 07:09:42 -0.04, -75.22 0.14, -76.11 101.19 80
4 03/14/2024 06:51:16 -0.04, -75.24 -0.71, -72.26 339.21 80
5 03/14/2024 19:11:44 0.04, -75.24 -0.39, -77.21 223.57 80
6 03/16/2024 18:58:37 0.03, -75.27 0.45, -73.35 217.87 80
7 03/17/2024 07:18:55 -0.03, -75.27 0.62, -78.27 340.80 80
8 03/19/2024 07:00:27 -0.02, -75.30 -0.22, -74.41 101.74 80
9 03/19/2024 19:20:55 0.02, -75.31 -0.84, -79.36 460.63 80
10 03/21/2024 19:05:06 0.01, -75.35 -0.01, -75.50 16.56 80
